| time (UTC) | temp C | wind direction | speed KPH | gust KPH | rain 1hr cm | rain 24hr cm | rain mn cm | humidity % | barometer mb |
| 20260506001538 | 18 | 360 | 9.7 | 0.0 | 0.00 | 0.00 | 0.56 | 42 | 1007.1 |
| 20260506000016 | 18 | 360 | 8.0 | 0.0 | 0.00 | 0.00 | 0.56 | 41 | 1006.9 |
| 20260505234552 | 20 | 139 | 11.3 | 0.0 | 0.00 | 0.00 | 0.56 | 38 | 1006.8 |
| 20260505233022 | 20 | 123 | 9.7 | 0.0 | 0.00 | 0.00 | 0.56 | 35 | 1006.7 |
| 20260505231602 | 21 | 167 | 8.0 | 0.0 | 0.00 | 0.00 | 0.56 | 35 | 1006.7 |
| 20260505230033 | 20 | 360 | 12.9 | 0.0 | 0.00 | 0.00 | 0.56 | 34 | 1006.7 |
| 20260505224502 | 21 | 360 | 9.7 | 0.0 | 0.00 | 0.00 | 0.56 | 35 | 1006.9 |
| 20260505223048 | 21 | 360 | 8.0 | 0.0 | 0.00 | 0.00 | 0.56 | 36 | 1007.0 |
| 20260505221515 | 20 | 360 | 9.7 | 0.0 | 0.00 | 0.00 | 0.56 | 37 | 1007.0 |
| 20260505220051 | 20 | 360 | 11.3 | 0.0 | 0.00 | 0.00 | 0.56 | 38 | 1007.0 |
| 20260505214547 | 19 | 360 | 8.0 | 0.0 | 0.00 | 0.00 | 0.56 | 41 | 1007.2 |
| 20260505213005 | 19 | 360 | 8.0 | 0.0 | 0.00 | 0.00 | 0.56 | 46 | 1007.5 |
| 20260505211544 | 20 | 160 | 11.3 | 0.0 | 0.00 | 0.00 | 0.56 | 47 | 1007.6 |
| 20260505210019 | 20 | 360 | 9.7 | 0.0 | 0.00 | 0.00 | 0.56 | 51 | 1007.6 |
| 20260505204558 | 19 | 162 | 9.7 | 0.0 | 0.00 | 0.00 | 0.56 | 50 | 1007.7 |
| 20260505203029 | 20 | 169 | 9.7 | 0.0 | 0.00 | 0.00 | 0.56 | 49 | 1007.6 |
| 20260505201607 | 20 | 137 | 11.3 | 0.0 | 0.00 | 0.00 | 0.56 | 50 | 1007.5 |
| 20260505200035 | 19 | 129 | 4.8 | 0.0 | 0.00 | 0.00 | 0.56 | 55 | 1007.5 |
| 20260505194504 | 18 | 360 | 6.4 | 0.0 | 0.00 | 0.00 | 0.56 | 57 | 1007.8 |
| 20260505193047 | 18 | 360 | 8.0 | 0.0 | 0.00 | 0.00 | 0.56 | 59 | 1007.7 |
| 20260505191513 | 18 | 360 | 6.4 | 0.0 | 0.00 | 0.00 | 0.56 | 60 | 1007.8 |
| 20260505190107 | 18 | 360 | 4.8 | 0.0 | 0.00 | 0.00 | 0.56 | 61 | 1008.2 |
| 20260505184525 | 17 | 360 | 4.8 | 0.0 | 0.00 | 0.00 | 0.56 | 64 | 1008.4 |
| 20260505183102 | 17 | 360 | 4.8 | 0.0 | 0.00 | 0.00 | 0.56 | 66 | 1008.6 |
| 20260505181534 | 16 | 360 | 4.8 | 0.0 | 0.00 | 0.00 | 0.56 | 67 | 1008.8 |
| 20260505180005 | 16 | 360 | 4.8 | 0.0 | 0.00 | 0.00 | 0.56 | 68 | 1008.8 |
| 20260505174544 | 17 | 360 | 4.8 | 0.0 | 0.00 | 0.00 | 0.56 | 68 | 1008.8 |
| 20260505173021 | 16 | 360 | 4.8 | 0.0 | 0.00 | 0.00 | 0.56 | 69 | 1008.6 |
| 20260505171557 | 16 | 360 | 3.2 | 0.0 | 0.00 | 0.00 | 0.56 | 73 | 1008.7 |
| 20260505170032 | 15 | 360 | 4.8 | 0.0 | 0.00 | 0.00 | 0.56 | 75 | 1008.6 |
| 20260505164502 | 15 | 360 | 4.8 | 0.0 | 0.00 | 0.00 | 0.56 | 77 | 1008.6 |
| 20260505163041 | 14 | 360 | 4.8 | 0.0 | 0.00 | 0.00 | 0.56 | 79 | 1008.3 |
| 20260505161516 | 14 | 360 | 3.2 | 0.0 | 0.00 | 0.00 | 0.56 | 81 | 1008.3 |
| 20260505153111 | 13 | 360 | 4.8 | 0.0 | 0.00 | 0.00 | 0.56 | 82 | 1008.3 |
| 20260505151535 | 13 | 360 | 3.2 | 0.0 | 0.00 | 0.00 | 0.56 | 84 | 1008.2 |
| 20260505130106 | 12 | 360 | 0.0 | 0.0 | 0.00 | 0.00 | 0.56 | 91 | 1007.0 |
| 20260505124536 | 12 | 360 | 0.0 | 0.0 | 0.00 | 0.00 | 0.56 | 91 | 1006.7 |
| 20260505123011 | 12 | 360 | 0.0 | 0.0 | 0.00 | 0.00 | 0.56 | 92 | 1006.5 |
| 20260505121549 | 12 | 360 | 0.0 | 0.0 | 0.00 | 0.00 | 0.56 | 93 | 1006.6 |
| 20260505120028 | 12 | 360 | 0.0 | 0.0 | 0.00 | 0.00 | 0.56 | 93 | 1006.3 |
| 20260505114601 | 12 | 360 | 0.0 | 0.0 | 0.00 | 0.00 | 0.56 | 93 | 1006.2 |
| 20260505113022 | 12 | 360 | 0.0 | 0.0 | 0.00 | 0.00 | 0.53 | 93 | 1006.4 |
| 20260505111604 | 12 | 360 | 0.0 | 0.0 | 0.00 | 0.00 | 0.53 | 93 | 1006.5 |
| 20260505101517 | 12 | 360 | 0.0 | 0.0 | 0.00 | 0.00 | 0.46 | 94 | 1007.1 |
| 20260505094523 | 12 | 360 | 0.0 | 0.0 | 0.00 | 0.00 | 0.46 | 93 | 1007.0 |
| 20260505093058 | 12 | 360 | 0.0 | 0.0 | 0.00 | 0.00 | 0.43 | 93 | 1007.1 |
| 20260505091540 | 12 | 360 | 1.6 | 0.0 | 0.00 | 0.00 | 0.41 | 93 | 1007.2 |
| 20260505090006 | 12 | 360 | 3.2 | 0.0 | 0.00 | 0.00 | 0.36 | 93 | 1007.6 |
| 20260505084541 | 12 | 360 | 3.2 | 0.0 | 0.00 | 0.00 | 0.33 | 92 | 1008.2 |
| 20260505083020 | 12 | 360 | 4.8 | 0.0 | 0.00 | 0.00 | 0.28 | 93 | 1008.5 |
| 20260505081606 | 12 | 360 | 4.8 | 0.0 | 0.00 | 0.00 | 0.25 | 93 | 1008.4 |
| 20260505080047 | 12 | 360 | 6.4 | 0.0 | 0.00 | 0.00 | 0.20 | 93 | 1008.8 |
| 20260505074505 | 12 | 360 | 6.4 | 0.0 | 0.00 | 0.00 | 0.18 | 92 | 1009.0 |
| 20260505073055 | 12 | 360 | 4.8 | 0.0 | 0.00 | 0.00 | 0.10 | 93 | 1009.4 |
| 20260505071518 | 12 | 360 | 3.2 | 0.0 | 0.00 | 0.00 | 0.05 | 92 | 1009.2 |
| 20260505070100 | 12 | 360 | 3.2 | 0.0 | 0.00 | 0.00 | 0.00 | 92 | 1009.5 |
| 20260505064530 | 12 | 360 | 3.2 | 0.0 | 0.00 | 0.00 | 0.41 | 91 | 1009.3 |
| 20260505063005 | 12 | 360 | 1.6 | 0.0 | 0.00 | 0.00 | 0.36 | 90 | 1009.6 |
| 20260505061544 | 12 | 360 | 1.6 | 0.0 | 0.00 | 0.00 | 0.30 | 89 | 1009.7 |
| 20260505060023 | 12 | 360 | 0.0 | 0.0 | 0.00 | 0.00 | 0.30 | 90 | 1009.3 |
| 20260505054550 | 12 | 360 | 1.6 | 0.0 | 0.00 | 0.00 | 0.28 | 89 | 1009.2 |
| 20260505053022 | 12 | 360 | 1.6 | 0.0 | 0.00 | 0.00 | 0.28 | 89 | 1009.4 |
| 20260505051501 | 12 | 360 | 3.2 | 0.0 | 0.00 | 0.00 | 0.25 | 87 | 1008.9 |
| 20260505050118 | 12 | 360 | 4.8 | 0.0 | 0.00 | 0.00 | 0.25 | 88 | 1009.2 |
| 20260505041546 | 13 | 360 | 1.6 | 0.0 | 0.00 | 0.00 | 0.13 | 82 | 1008.9 |
| 20260505040008 | 13 | 360 | 3.2 | 0.0 | 0.00 | 0.00 | 0.10 | 80 | 1008.8 |
| 20260505034545 | 13 | 360 | 4.8 | 0.0 | 0.00 | 0.00 | 0.10 | 79 | 1008.5 |
| 20260505033018 | 13 | 360 | 1.6 | 0.0 | 0.00 | 0.00 | 0.10 | 83 | 1008.1 |
| 20260505031604 | 13 | 360 | 4.8 | 0.0 | 0.00 | 0.00 | 0.10 | 83 | 1007.7 |
| 20260505030043 | 13 | 360 | 6.4 | 0.0 | 0.00 | 0.00 | 0.10 | 80 | 1007.6 |
| 20260505024528 | 13 | 360 | 9.7 | 0.0 | 0.00 | 0.00 | 0.08 | 77 | 1008.0 |
| 20260505023005 | 13 | 360 | 11.3 | 0.0 | 0.00 | 0.00 | 0.08 | 75 | 1007.3 |
| 20260505021546 | 12 | 360 | 12.9 | 0.0 | 0.00 | 0.00 | 0.08 | 74 | 1007.7 |
| 20260505020003 | 13 | 360 | 6.4 | 0.0 | 0.00 | 0.00 | 0.05 | 73 | 1008.2 |
| 20260505014603 | 13 | 360 | 6.4 | 0.0 | 0.00 | 0.00 | 0.03 | 69 | 1008.4 |
| 20260505013026 | 15 | 360 | 6.4 | 0.0 | 0.00 | 0.00 | 0.00 | 59 | 1008.3 |
| 20260505011512 | 17 | 360 | 8.0 | 0.0 | 0.00 | 0.00 | 0.00 | 49 | 1007.8 |
| 20260505010058 | 18 | 360 | 8.0 | 0.0 | 0.00 | 0.00 | 0.00 | 44 | 1007.8 |
| 20260505004539 | 18 | 360 | 6.4 | 0.0 | 0.00 | 0.00 | 0.00 | 42 | 1007.6 |
| 20260505003011 | 18 | 360 | 6.4 | 0.0 | 0.00 | 0.00 | 0.00 | 43 | 1007.6 |